CAPE
297 1103 1500 672 943 806 757 1859 926 870 1017 752 1168 1028 996 664 524 274 303 141 51 68 199 499 1247 1253 1512 1437 1421 1350 1245 1294 1355 1466 1439 1460 1231 1316 1460 1304 1091 719 669
2050 1895 1825 1289 1162 1819 1434 2057 930 889 495 1124 973 734 825 830 661 505 404 209 105 192 240 420 527 695 867 1010 1427 1325 1220 1127 1144 1192 1179 1365 1322 1120 996 919 850 725 611
1478 1757 2067 997 834 1420 1653 1503 975 1672 1300 951 932 911 701 1063 760 868 670 310 367 338 360 350 175 98 139 272 385 387 288 268 551 874 949 851 658 899 829 325 393 723 737
1755 1702 1670 1072 2011 2639 1812 1271 957 715 644 361 183 516 962 941 1130 876 953 293 191 23 409 207 197 78 244 188 130 93 73 31 18 43 167 465 913 828 804 733 493 278 418
1518 1713 1474 1523 2145 1456 1127 1290 1475 1109 971 332 179 111 505 568 747 1518 1059 316 146 1 204 395 85 44 192 165 176 212 231 222 128 43 3 4 164 491 676 735 716 340 147
1129 1748 993 2476 2031 1810 1798 1653 1641 1685 606 231 285 339 214 319 499 1169 1407 975 404 219 188 391 312 127 133 225 268 277 238 278 239 170 75 18 0 83 431 780 709 516 371
1042 2077 579 45 1924 2455 2174 2107 1623 1127 517 261 214 225 239 363 313 580 1350 1445 1531 1214 956 869 592 430 439 425 299 132 204 298 276 219 100 43 19 9 77 485 734 717 473
1238 1841 990 5 937 2222 1879 2359 1965 1077 840 347 198 174 151 432 78 30 25 342 680 1054 1179 975 741 664 387 206 109 60 191 109 140 136 47 1 1 25 0 153 502 500 466
1329 1627 1645 2204 2374 2216 2176 1963 1068 1669 805 708 217 130 84 77 89 81 50 0 0 201 160 340 282 319 196 139 259 262 147 132 125 37 1 0 0 0 0 2 232 496 324
1325 1423 1625 2104 2775 2367 2244 2288 2232 1545 755 806 604 189 112 71 56 77 56 0 0 136 95 0 35 165 151 105 100 95 30 1 6 0 0 5 21 1 0 0 61 291 411
1947 1410 1603 2081 2770 2955 2519 2453 2024 1267 1913 1123 1225 800 349 209 39 42 43 7 15 0 0 0 1 21 25 25 10 1 21 17 8 0 0 38 22 5 11 0 14 218 340
1380 1758 1314 2050 2313 2450 2447 2338 2321 2288 1286 1564 1301 1170 317 213 143 42 71 1 0 2 0 0 12 34 34 42 30 18 58 8 0 0 0 0 11 5 12 11 13 46 227
479 2104 2091 2020 1881 2102 2261 2664 2299 1974 1717 1740 1444 1021 622 311 93 45 25 0 0 4 0 0 10 33 59 32 42 67 48 0 0 0 0 0 2 1 8 39 10 3 112
916 855 1055 1276 1604 1370 2045 2288 2327 2087 1814 1496 1713 1438 493 374 121 34 9 0 0 0 0 0 2 24 4 2 36 33 26 0 0 0 0 0 0 1 9 41 54 38 11
235 308 1103 718 1068 1249 1402 2102 2192 1968 1554 1395 1505 1393 574 473 72 10 0 0 0 0 9 1 0 8 0 2 9 12 34 5 0 0 0 0 0 0 9 29 28 15 6
593 578 1136 1119 1157 1186 1085 1468 1664 1293 1579 1445 1329 1013 688 485 92 0 0 0 0 0 7 0 6 1 0 0 2 19 13 0 0 0 0 0 0 0 0 4 0 0 0
678 773 976 1438 1541 1299 1204 744 1022 1743 1340 1620 1195 372 411 306 92 0 0 0 0 0 0 0 0 4 0 1 1 5 17 3 0 0 0 0 0 0 0 0 0 0 0
1060 1241 1285 1284 1482 1711 2019 2031 1574 963 1457 1474 1262 527 402 312 51 6 0 0 0 0 4 0 0 0 0 4 0 0 12 7 3 0 0 0 0 1 1 1 0 0 0
2358 2394 2548 2748 2859 2561 2410 2482 2447 2048 1415 1894 1235 786 557 442 156 0 0 0 0 0 0 0 0 2 9 5 12 15 1 0 1 0 0 0 0 0 1 1 1 0 0
2710 2879 2988 2919 2660 2500 2473 2351 2122 2145 1682 1775 1277 696 991 311 83 0 0 0 0 0 0 0 0 0 6 0 17 7 4 0 0 0 0 0 0 0 0 0 0 0 0
2467 2278 2695 2910 2454 2404 2475 2154 1916 1669 1819 1631 1279 1100 169 16 0 0 0 0 0 0 9 0 0 0 0 0 19 4 0 0 0 0 0 0 0 0 0 2 1 0 0
1378 1606 850 524 1212 2279 1238 1096 1310 1586 1520 1457 1050 218 0 0 0 0 0 0 0 0 0 4 0 0 4 23 8 2 0 0 0 0 0 0 0 0 0 1 2 0 0
1471 1208 1837 1362 1719 2568 1107 986 622 437 1378 1378 978 234 32 0 0 0 0 0 0 0 0 0 0 0 0 9 7 0 0 0 0 0 0 0 0 0 2 2 1 1 0
1148 1506 2087 2297 2349 1785 910 585 382 430 982 1296 928 116 27 0 0 0 0 0 0 0 0 0 0 0 0 0 1 7 1 0 0 0 0 0 0 0 2 2 2 2 0
1350 1821 1958 1955 2284 1605 791 313 25 504 1501 1229 1060 115 0 0 0 0 0 0 0 0 0 0 0 0 0 0 0 0 9 17 0 0 0 0 0 0 2 1 1 0 0
1203 1524 1971 1876 2123 1806 688 164 125 368 844 953 359 157 0 0 0 0 0 0 0 0 0 0 0 0 0 0 0 0 0 16 5 0 0 0 0 0 2 3 3 1 0
CIN
-96 -26 -14 -276 -38 -35 -32 -19 -24 -13 -20 -15 -8 -9 -21 -15 -46 -200 -236 -260 -323 -331 -221 -149 -35 -48 -26 -29 -13 -22 -42 -13 -15 -8 -10 -10 -14 -6 -3 -7 -13 -26 -18
-16 -20 -15 -26 -16 -9 -6 -5 -19 -20 -42 -17 -17 -17 -10 -22 -35 -121 -184 -242 -310 -277 -276 -225 -182 -136 -107 -79 -13 -20 -30 -33 -21 -17 -12 -6 -8 -14 -13 -10 -3 -18 -45
-15 -18 -6 -17 -16 -16 -14 -10 -20 -17 -20 -10 -5 -9 -18 -25 -32 -68 -118 -210 -173 -180 -152 -210 -315 -341 -289 -182 -133 -167 -167 -131 -81 -37 -30 -44 -57 -25 -17 -37 -10 -26 -50
-12 -18 -14 -20 -14 -10 -12 -24 -55 -89 -98 -120 -134 -46 -9 -13 -27 -54 -77 -182 -263 -243 -156 -216 -255 -288 -189 -173 -184 -158 -185 -252 -250 -191 -108 -78 -32 -32 -21 -7 -41 -87 -78
-3 -11 -12 -9 -13 -18 -40 -39 -32 -68 -69 -163 -171 -176 -53 -31 -8 -27 -73 -170 -264 -45 -159 -120 -238 -204 -95 -92 -75 -85 -119 -126 -160 -181 -85 -100 -129 -61 -29 -8 -4 -52 -72
-4 -9 -102 -11 -14 -16 -32 -42 -42 -43 -126 -183 -181 -132 -149 -78 -18 -24 -50 -98 -99 -113 -80 -68 -54 -84 -68 -33 -22 -46 -58 -43 -104 -120 -151 -190 0 -163 -56 -13 -2 -25 -34
-3 -9 -90 -67 -20 -5 -14 -18 -33 -71 -109 -155 -173 -118 -67 -30 -25 -9 -37 -20 -3 -11 -7 -4 -9 -15 -3 -1 -2 -34 -7 -1 -61 -82 -129 -146 -187 -212 -132 -33 0 0 -5
-2 -8 -57 -18 -69 -7 -8 -14 -22 -54 -63 -128 -155 -129 -49 -9 -52 -108 -125 -53 -48 -22 -7 -7 -6 -3 -17 -52 -75 -49 -2 -11 -49 -43 -102 -97 -35 -128 0 -67 -18 -6 -2
-4 -1 -3 -6 -5 -4 -4 -17 -65 -34 -73 -80 -149 -143 -124 -85 -83 -96 -170 0 0 -120 -157 -75 -78 -60 -43 -37 -15 -2 -4 -2 -16 -45 -7 0 0 0 -8 -5 -27 -17 -19
-18 -11 -2 -1 -3 -10 -19 -6 -14 -20 -51 -15 -21 -86 -105 -111 -118 -84 -84 0 0 -150 -160 0 -161 -79 -17 -22 -10 -21 -25 -11 -10 -1 0 -39 -29 0 0 0 -37 -13 -5
-17 -18 -6 -8 -2 -1 -5 -3 -12 -24 -10 -11 -4 -7 -23 -36 -106 -120 -87 -44 -44 -4 0 0 -17 -140 -97 -45 -31 -15 -32 -44 -43 -17 0 -38 -48 0 0 0 -39 0 0
-20 -21 -13 -5 -4 -3 -2 -4 -5 -8 -16 -17 -11 -4 -29 -36 -41 -123 -102 -26 0 -36 0 0 -101 -96 -56 -27 -27 -15 0 -22 0 0 0 0 -37 -19 -7 -49 -56 -2 0
-15 -16 -11 -8 -7 -5 -4 -5 -9 -12 -12 -9 -17 -19 -16 -18 -70 -122 -151 0 0 -28 0 0 -77 -43 -9 -32 -17 0 0 0 0 0 0 0 -13 -11 -14 -25 -28 0 0
-19 -22 -18 -11 -11 -6 -1 -3 -7 -8 -9 -14 -7 -14 -31 -13 -64 -103 -191 0 0 0 0 0 -9 -23 -7 -3 -18 -10 -2 0 0 0 0 0 0 0 -24 -2 -1 0 0
-74 -25 -18 -47 -28 -9 -6 -2 -6 -2 -7 -11 -13 -3 -20 -9 -65 -111 0 0 0 0 -16 0 0 -39 0 -46 -19 -12 -8 -19 0 0 0 0 0 0 -1 -1 -8 -10 -7
-72 -61 -31 -30 -22 -21 -17 -8 -3 -3 -6 -13 -14 -5 -12 -8 -28 0 0 0 0 0 -3 0 -41 -25 0 0 -4 -4 -15 0 0 0 0 0 0 0 -1 0 0 0 0
-61 -58 -46 -36 -27 -40 -41 -53 -38 -10 -7 -3 -13 -26 -10 -23 -35 0 0 0 0 0 0 0 -2 0 0 -10 -16 -7 -4 -7 0 0 0 0 0 0 0 0 0 0 0
-37 -38 -48 -52 -46 -35 -25 -23 -45 -44 -13 -3 -6 -51 -23 -25 -88 -76 0 0 0 0 -22 0 0 0 0 -19 -1 0 -5 -24 -61 -59 0 0 0 0 0 0 0 0 0
-2 -14 -10 -6 -3 -9 -7 -4 -4 -15 -29 -2 -8 -45 -36 -13 -14 0 0 0 0 0 0 0 0 -5 -2 -9 -9 -14 -5 0 -94 0 0 0 0 0 0 0 0 0 0
-11 -11 -15 -6 -8 -4 -6 -8 -8 -9 -16 -2 -15 -48 -21 -35 -64 0 0 0 0 0 0 0 0 0 -25 0 -10 -9 -12 0 0 0 0 0 0 -2 0 0 0 0 0
-3 -3 -13 -2 -5 -16 -12 -20 -21 -14 -11 -3 -16 -26 -140 -67 0 0 0 0 0 0 -12 -13 0 0 -10 -6 -4 -10 0 0 0 0 0 0 0 0 0 0 0 0 0
-60 -33 -79 -65 -30 -10 -56 -55 -38 -19 -7 -10 -30 -131 0 0 0 0 0 0 0 0 0 -9 0 0 -6 -7 -15 -16 0 0 0 0 0 0 0 0 0 0 0 0 0
-41 -51 -12 -32 -14 -3 -94 -85 -81 -61 -15 -13 -43 -124 -152 0 0 0 0 0 0 0 0 0 0 0 0 -12 -5 0 0 0 0 0 0 0 0 0 0 0 0 0 0
-18 -14 -2 -1 -5 -41 -142 -148 -122 -80 -32 -18 -57 -145 -193 0 0 0 0 0 0 0 0 0 0 0 0 0 -6 -1 -2 0 0 0 0 0 0 0 0 0 0 0 0
-8 -2 -3 -5 -1 -43 -154 -181 -174 -84 -17 -4 -2 -83 0 0 0 0 0 0 0 0 0 0 0 0 0 0 0 0 -7 -6 -4 0 0 0 0 0 0 0 0 0 0
-18 -24 -5 -5 -2 -21 -114 -191 -165 -77 -7 -1 -15 -81 0 0 0 0 0 0 0 0 0 0 0 0 0 0 0 0 -2 -5 -12 0 -1 0 -1 0 0 0 0 0 0
Wind_Speed
13 11 11 13 12 22 13 17 18 15 15 15 14 13 14 15 13 12 12 14 15 16 17 17 17 19 19 18 16 13 11 11 14 13 11 9 10 12 14 10 8 7 8
16 13 8 19 16 14 17 16 19 16 15 12 11 15 13 12 12 12 12 12 14 14 14 14 14 15 16 17 16 15 13 11 11 13 14 14 13 11 11 13 9 7 7
9 9 10 21 8 10 9 17 17 13 7 14 19 11 13 13 12 13 12 11 14 16 15 10 11 11 13 13 14 15 13 12 11 12 13 14 15 16 12 11 11 9 4
9 9 19 15 11 8 4 20 24 22 26 25 23 14 14 13 11 10 12 13 14 13 9 7 7 9 12 11 13 16 15 13 12 12 12 13 15 17 17 9 9 7 9
18 12 9 16 11 23 23 22 22 23 22 25 15 12 18 16 11 10 10 11 10 9 6 6 5 9 10 10 11 13 13 12 13 12 13 13 14 17 19 12 10 12 14
18 18 12 13 18 20 24 22 20 12 22 26 17 10 12 16 19 15 12 13 13 11 7 7 8 9 9 8 8 10 13 8 12 13 14 14 14 16 18 19 10 12 14
17 19 20 14 15 21 19 21 20 16 22 25 21 19 15 16 17 18 18 16 16 15 12 10 10 12 12 13 15 13 9 8 11 13 15 17 16 15 16 17 15 9 10
15 18 19 14 11 16 14 21 22 19 20 24 24 19 21 15 26 19 18 21 19 19 19 19 18 18 16 15 10 9 8 13 12 16 18 18 18 15 15 17 18 18 9
15 15 15 12 11 7 13 19 22 20 18 19 22 23 21 17 20 21 20 21 22 22 24 23 23 21 17 13 11 9 9 12 17 17 20 19 19 18 16 16 17 20 17
13 12 12 11 12 10 15 17 21 20 21 21 18 21 18 16 18 20 19 15 15 20 21 21 22 24 19 16 13 11 10 12 16 18 19 18 18 17 17 16 19 21 25
8 9 10 11 10 8 14 17 18 18 19 20 21 19 19 17 14 17 20 19 13 18 20 20 20 21 19 15 14 13 14 14 14 14 16 16 17 18 18 20 20 23 23
4 6 8 11 11 10 11 14 17 16 17 18 18 16 18 16 19 18 20 18 17 15 20 20 20 20 18 16 16 14 13 13 13 14 15 18 18 19 22 23 22 25 26
22 10 12 15 15 15 9 11 14 13 13 15 17 15 16 16 18 17 19 19 18 16 18 20 19 18 16 16 14 14 13 13 13 13 15 17 18 19 22 25 25 26 29
20 20 17 17 19 16 12 10 11 12 11 11 15 14 14 14 18 18 18 18 19 18 17 18 17 17 16 14 13 14 14 13 12 12 15 15 17 18 18 18 22 28 32
10 15 21 16 14 17 18 15 11 11 10 11 12 13 13 14 19 19 17 16 18 18 20 17 17 15 14 15 15 13 12 12 12 12 15 15 15 17 17 16 18 20 26
20 21 20 19 17 15 15 18 14 13 12 11 12 14 16 19 18 20 18 15 16 17 20 18 17 15 14 15 15 16 14 14 14 14 12 13 15 19 20 20 21 22 26
17 16 16 16 15 12 12 11 13 12 10 10 10 18 10 17 20 19 19 17 21 22 22 19 18 17 16 15 16 15 16 17 16 16 17 18 18 21 24 25 24 23 27
16 16 13 12 12 11 10 9 11 11 14 9 9 13 16 16 15 16 19 18 18 20 22 21 19 18 16 15 16 17 18 18 18 15 16 18 20 23 26 27 27 27 29
19 17 14 14 13 14 12 10 13 11 15 10 10 13 15 14 15 17 18 20 21 22 22 21 21 17 17 16 16 16 18 20 18 15 16 18 21 23 27 29 29 30 31
15 18 19 18 20 19 16 15 11 11 11 11 12 13 15 14 15 15 15 19 19 18 20 21 21 20 19 16 15 16 18 17 15 11 14 18 22 25 29 30 32 33 34
26 26 29 28 25 21 17 15 10 13 13 12 15 15 17 17 15 16 16 17 20 17 16 18 19 19 17 16 15 17 18 15 11 12 13 18 23 26 30 33 34 36 37
30 32 35 36 34 21 22 23 11 5 8 6 8 11 14 16 14 15 17 20 21 21 19 21 17 18 19 19 19 20 18 17 14 13 12 15 19 24 29 33 36 38 40
14 34 28 30 20 20 21 24 17 13 3 1 4 6 12 14 12 14 17 18 21 22 21 18 21 19 19 19 18 19 17 17 15 11 13 14 17 20 25 31 37 40 41
25 23 22 25 23 24 25 22 17 15 5 2 3 3 8 9 10 12 15 18 21 23 22 20 21 20 20 18 17 16 15 15 16 10 14 13 15 19 21 27 36 40 42
25 24 19 17 21 21 21 20 20 19 15 12 10 6 7 7 7 9 12 15 18 21 22 22 22 21 19 18 18 14 9 12 12 11 13 14 16 17 19 21 27 38 40
22 21 20 16 20 21 21 20 20 21 19 14 12 9 6 4 4 7 10 12 16 18 20 19 20 20 18 18 16 15 11 6 10 11 12 16 19 18 20 19 19 23 25
Wind_Direction
129 157 155 82 126 78 128 103 62 87 83 81 81 85 63 49 75 71 66 58 49 42 38 36 38 34 40 38 41 39 17 344 311 299 291 279 270 268 266 266 269 280 273
115 137 165 95 104 123 100 84 65 95 83 94 92 61 54 62 65 61 51 47 44 39 45 36 34 43 41 36 39 40 22 7 341 312 302 290 276 262 257 263 268 284 265
218 234 255 22 298 164 160 89 80 101 107 71 38 64 53 52 63 57 53 39 28 5 9 40 29 31 28 31 32 35 39 4 349 325 307 299 285 275 259 247 250 273 247
238 241 14 321 275 208 76 8 27 9 7 6 18 56 51 58 62 56 41 37 33 42 358 18 29 24 19 25 22 22 22 7 353 337 316 305 292 281 274 234 219 210 220
351 273 216 333 273 26 5 360 25 41 44 23 47 49 37 41 44 50 42 43 26 14 37 10 12 9 17 21 19 17 7 348 349 339 320 313 301 284 275 263 203 190 188
42 355 254 296 340 347 36 43 50 86 42 27 48 55 44 40 23 38 36 33 33 34 22 21 12 5 8 359 1 12 12 33 348 332 315 311 307 291 277 267 236 183 178
32 325 11 300 55 38 64 48 53 65 40 32 37 39 43 35 31 26 34 27 30 32 26 13 13 9 359 354 35 38 43 48 4 332 310 301 300 296 281 271 254 217 186
65 44 42 102 125 68 88 39 45 52 46 34 31 35 33 42 21 25 25 21 23 25 23 26 21 10 10 1 14 33 41 331 357 327 295 298 292 293 284 268 256 247 210
54 52 61 118 107 127 81 42 35 40 42 36 33 32 32 34 24 19 19 14 16 23 23 26 23 20 23 32 40 33 22 348 327 317 291 288 284 278 280 268 255 243 234
68 78 84 102 83 106 51 42 28 33 30 28 36 31 35 34 33 25 25 32 34 29 26 31 29 31 35 34 44 35 40 11 334 303 305 282 278 277 272 264 248 241 234
105 115 77 73 81 105 42 30 29 32 30 29 28 33 35 39 41 29 24 30 46 41 33 31 34 37 43 50 53 47 48 28 4 344 320 277 272 270 267 252 245 237 233
107 116 67 40 44 47 42 31 23 28 31 32 31 37 37 41 34 35 26 30 30 43 34 35 37 42 53 59 70 73 46 27 2 336 310 272 271 257 248 244 243 232 227
330 53 17 3 8 14 41 29 26 27 31 33 31 40 41 43 38 36 33 30 29 45 34 37 39 48 62 72 80 78 65 44 25 342 299 272 262 257 249 237 235 229 221
330 338 354 356 352 2 15 23 24 22 38 37 30 41 45 45 38 36 35 32 28 31 39 37 43 52 63 81 89 79 83 70 43 12 305 288 275 265 256 247 234 225 216
344 341 335 348 2 354 354 5 17 20 28 31 34 35 45 42 39 34 37 36 32 29 30 40 44 57 77 86 89 93 100 78 64 52 303 282 272 255 251 244 232 227 220
325 323 331 337 345 352 353 352 2 9 19 23 28 29 23 25 35 34 36 39 38 34 33 43 45 62 78 95 95 90 96 86 78 71 71 285 260 242 232 227 225 224 219
326 332 335 339 344 351 354 355 353 357 3 13 28 18 34 31 27 33 37 40 37 35 40 45 51 66 78 93 96 96 101 101 92 108 163 221 237 227 220 220 222 223 215
328 332 338 340 341 343 345 347 348 351 353 10 21 17 17 28 36 38 37 43 45 46 46 50 60 71 85 96 95 103 108 105 101 127 176 212 218 217 213 213 215 215 211
323 327 332 332 332 333 333 332 338 344 347 4 14 9 15 30 33 37 40 40 44 46 52 58 62 73 83 96 102 119 104 102 115 129 168 197 211 214 211 212 212 209 207
329 324 326 327 327 329 330 331 334 336 347 359 5 3 14 24 37 41 51 44 49 54 56 61 66 74 84 101 117 109 108 130 127 177 202 211 219 218 212 215 211 207 205
315 316 312 313 325 333 334 337 336 331 340 354 350 358 6 22 34 42 44 47 42 53 60 66 70 79 88 98 111 99 90 115 149 173 215 211 217 218 215 212 209 204 201
312 310 303 301 306 337 328 332 337 328 339 357 5 8 11 24 26 40 44 41 44 44 53 56 78 83 87 86 92 100 96 101 114 159 193 206 209 211 212 210 204 200 198
321 305 314 314 328 332 333 329 337 340 326 354 12 17 7 15 33 41 44 45 47 43 51 65 64 76 88 94 98 95 105 110 120 152 183 198 209 214 213 208 201 198 196
317 321 320 318 323 323 328 334 335 337 335 341 351 23 8 29 32 48 51 48 47 39 43 57 63 67 77 94 108 110 113 111 113 156 187 209 215 212 212 207 197 195 194
323 322 329 328 328 325 334 337 339 338 336 334 332 340 351 14 71 76 51 51 48 49 45 48 60 68 83 91 101 113 138 143 139 160 191 214 211 205 207 208 205 197 198
339 335 332 336 324 323 332 337 339 336 335 334 334 325 329 344 42 76 41 54 50 56 55 60 72 78 91 104 108 108 126 208 166 161 200 200 199 205 201 210 210 209 212